Date String (YYYY-MM-DD hh:mm:ss) UTC,Instrument flags,absolute air pressure of the measurement (hPa),sample flow rate (lpm),inlet stack bypass flow (lpm),air temperature of the measurement (°C),ambient temperature measured by the external sensor (°C),aerosol sample conditioner tube jacket temperature (°C),OPC LED temperature (°C),internal box temperature (°C),relative humidity of the measurement (%),span deviation,mass concentration of particles derived from Lorenz-Mie calculation of OPC scattering (μg/m³),mass concentration of particles derived from Lorenz-Mie calculation of OPC scattering (μg/m³),mass concentration of particles derived from Lorenz-Mie calculation of OPC scattering (μg/m³)
DateTimeUTC,F1_M11,P_M11,Q1_M11,Q2_M11,T1_M11,T2_M11,T3_M11,T4_M11,T5_M11,U1_M11,ZSPAN_M11,X0_M11,X2_M11,X1_M11
2024-05-04 23:00:00,SystemResetWarning,0826.8,5.00,000.00,026.4,025.9,000.0,034.7,028.3,017.8,0000.0,0014.30,0005.65,0004.55
2024-05-04 23:01:00,SystemResetWarning,0826.8,5.00,000.00,026.5,026.0,000.0,034.7,028.3,017.4,0000.0,0014.61,0005.62,0004.53
2024-05-04 23:02:00,SystemResetWarning,0826.8,5.01,000.00,026.5,026.0,000.0,034.7,028.3,017.2,0000.0,0015.84,0005.62,0004.50
2024-05-04 23:03:00,SystemResetWarning,0826.8,5.00,000.00,026.5,026.0,000.0,034.7,028.4,017.2,0000.0,0016.06,0005.65,0004.50
2024-05-04 23:04:00,SystemResetWarning,0826.8,5.00,000.00,026.5,026.0,000.0,034.7,028.4,017.2,0000.0,0015.96,0005.63,0004.50
2024-05-04 23:05:00,SystemResetWarning,0826.8,5.00,000.00,026.6,026.1,000.0,034.8,028.4,017.2,0000.0,0015.47,0005.63,0004.51
2024-05-04 23:06:00,SystemResetWarning,0826.8,5.01,000.00,026.6,026.1,000.0,034.8,028.5,017.2,0000.0,0015.64,0005.67,0004.52
2024-05-04 23:07:00,SystemResetWarning,0826.7,5.00,000.00,026.6,026.1,000.0,034.8,028.4,017.0,0000.0,0015.72,0005.73,0004.55
2024-05-04 23:08:00,SystemResetWarning,0826.7,4.99,000.00,026.4,024.5,000.0,034.9,027.5,017.3,0000.0,0015.58,0005.75,0004.56
2024-05-04 23:09:00,SystemResetWarning,0826.6,5.00,000.00,025.9,022.4,000.0,034.8,026.4,017.7,0000.0,0016.32,0005.76,0004.56
2024-05-04 23:10:00,SystemResetWarning,0826.6,5.01,000.00,025.6,022.3,000.0,034.8,026.2,018.2,0000.0,0016.77,0005.80,0004.57
2024-05-04 23:11:00,SystemResetWarning,0826.6,4.99,000.00,025.5,022.7,000.0,034.6,026.4,018.8,0000.0,0017.57,0005.82,0004.58
2024-05-04 23:12:00,SystemResetWarning,0826.6,4.99,000.00,025.5,023.1,000.0,034.4,026.7,018.8,0000.0,0017.94,0005.81,0004.56
2024-05-04 23:13:00,SystemResetWarning,0826.6,5.00,000.00,025.5,023.5,000.0,034.3,026.9,018.5,0000.0,0016.61,0005.77,0004.53
2024-05-04 23:14:00,SystemResetWarning,0826.6,5.01,000.00,025.5,023.8,000.0,034.2,027.1,018.5,0000.0,0015.74,0005.67,0004.49
2024-05-04 23:15:00,SystemResetWarning,0826.6,5.01,000.00,025.6,024.1,000.0,034.2,027.2,018.2,0000.0,0016.31,0005.63,0004.47
2024-05-04 23:16:00,SystemResetWarning,0826.6,4.98,000.00,025.6,024.4,000.0,034.2,027.3,018.1,0000.0,0016.24,0005.67,0004.45
2024-05-04 23:17:00,SystemResetWarning,0826.6,4.99,000.00,025.6,024.6,000.0,034.1,027.4,017.9,0000.0,0015.90,0005.63,0004.43
2024-05-04 23:18:00,SystemResetWarning,0826.6,5.02,000.00,025.7,024.8,000.0,034.1,027.5,017.8,0000.0,0015.91,0005.56,0004.40
2024-05-04 23:19:00,SystemResetWarning,0826.6,5.00,000.00,025.7,024.9,000.0,034.1,027.5,018.0,0000.0,0016.41,0005.54,0004.37
2024-05-04 23:20:00,SystemResetWarning,0826.6,4.99,000.00,025.8,025.0,000.0,034.1,027.6,017.8,0000.0,0015.79,0005.49,0004.34
2024-05-04 23:21:00,SystemResetWarning,0826.6,4.99,000.00,025.8,025.1,000.0,034.1,027.6,017.6,0000.0,0015.49,0005.44,0004.29
2024-05-04 23:22:00,SystemResetWarning,0826.6,5.00,000.00,025.8,025.2,000.0,034.1,027.7,017.7,0000.0,0014.52,0005.38,0004.26
2024-05-04 23:23:00,SystemResetWarning,0826.6,5.02,000.00,025.9,025.3,000.0,034.1,027.7,017.7,0000.0,0013.69,0005.35,0004.23
2024-05-04 23:24:00,SystemResetWarning,0826.6,4.99,000.00,025.9,025.4,000.0,034.2,027.8,018.1,0000.0,0013.55,0005.30,0004.20
2024-05-04 23:25:00,SystemResetWarning,0826.6,4.99,000.00,026.0,025.5,000.0,034.2,027.9,018.1,0000.0,0014.12,0005.27,0004.15
2024-05-04 23:26:00,SystemResetWarning,0826.6,5.02,000.00,026.0,025.5,000.0,034.2,027.9,018.0,0000.0,0014.30,0005.18,0004.09
2024-05-04 23:27:00,SystemResetWarning,0826.6,5.00,000.00,026.1,025.6,000.0,034.2,028.0,017.7,0000.0,0014.26,0005.11,0004.04
2024-05-04 23:28:00,SystemResetWarning,0826.6,4.99,000.00,026.1,025.6,000.0,034.3,028.0,017.6,0000.0,0014.34,0005.07,0004.01
2024-05-04 23:29:00,SystemResetWarning,0826.6,5.00,000.00,026.1,025.7,000.0,034.3,028.0,017.8,0000.0,0014.65,0005.06,0003.99
2024-05-04 23:30:00,SystemResetWarning,0826.6,5.01,000.00,026.2,025.7,000.0,034.3,028.1,018.0,0000.0,0013.75,0005.00,0003.94
2024-05-04 23:31:00,SystemResetWarning,0826.5,5.00,000.00,026.1,025.0,000.0,034.4,027.6,017.8,0000.0,0013.76,0004.95,0003.90
2024-05-04 23:32:00,SystemResetWarning,0826.4,4.99,000.00,025.7,022.6,000.0,034.4,026.3,018.1,0000.0,0014.12,0004.93,0003.88
2024-05-04 23:33:00,SystemResetWarning,0826.3,5.01,000.00,025.3,021.7,000.0,034.4,025.8,018.8,0000.0,0013.64,0004.93,0003.84
2024-05-04 23:34:00,SystemResetWarning,0826.4,5.00,000.00,025.1,022.1,000.0,034.2,025.9,018.9,0000.0,0013.69,0004.87,0003.81
2024-05-04 23:35:00,SystemResetWarning,0826.4,4.99,000.00,025.1,022.5,000.0,034.0,026.2,018.7,0000.0,0014.14,0004.86,0003.79
2024-05-04 23:36:00,SystemResetWarning,0826.4,5.00,000.00,025.1,023.0,000.0,033.9,026.5,018.7,0000.0,0014.06,0004.88,0003.79
2024-05-04 23:37:00,SystemResetWarning,0826.4,5.00,000.00,025.1,023.4,000.0,033.8,026.7,018.7,0000.0,0013.65,0004.89,0003.79
2024-05-04 23:38:00,SystemResetWarning,0826.3,5.00,000.00,025.2,023.7,000.0,033.8,026.8,018.6,0000.0,0013.35,0004.89,0003.79
2024-05-04 23:39:00,SystemResetWarning,0826.3,4.99,000.00,025.2,024.0,000.0,033.8,026.9,018.7,0000.0,0014.07,0004.92,0003.77
2024-05-04 23:40:00,SystemResetWarning,0826.3,5.00,000.00,025.3,024.2,000.0,033.7,027.0,018.7,0000.0,0014.63,0004.91,0003.75
2024-05-04 23:41:00,SystemResetWarning,0826.3,5.01,000.00,025.3,024.4,000.0,033.7,027.1,018.8,0000.0,0015.50,0004.93,0003.73
2024-05-04 23:42:00,SystemResetWarning,0826.2,5.00,000.00,025.4,024.6,000.0,033.7,027.2,018.9,0000.0,0015.16,0004.96,0003.70
2024-05-04 23:43:00,SystemResetWarning,0826.2,4.99,000.00,025.4,024.8,000.0,033.7,027.3,019.0,0000.0,0014.77,0004.96,0003.69
2024-05-04 23:44:00,SystemResetWarning,0826.3,5.00,000.00,025.5,024.9,000.0,033.8,027.4,019.0,0000.0,0014.50,0004.94,0003.67
2024-05-04 23:45:00,SystemResetWarning,0826.2,5.00,000.00,025.5,025.0,000.0,033.8,027.4,018.9,0000.0,0015.01,0004.95,0003.68
2024-05-04 23:46:00,SystemResetWarning,0826.2,5.00,000.00,025.6,025.1,000.0,033.8,027.5,019.1,0000.0,0015.35,0004.92,0003.69
2024-05-04 23:47:00,SystemResetWarning,0826.2,5.00,000.00,025.6,025.2,000.0,033.8,027.6,018.6,0000.0,0015.08,0004.92,0003.70
2024-05-04 23:48:00,SystemResetWarning,0826.3,4.99,000.00,025.7,025.3,000.0,033.9,027.6,018.6,0000.0,0014.78,0004.95,0003.71
2024-05-04 23:49:00,SystemResetWarning,0826.2,5.00,000.00,025.7,025.3,000.0,033.9,027.7,018.9,0000.0,0014.42,0004.96,0003.73
2024-05-04 23:50:00,SystemResetWarning,0826.2,5.00,000.00,025.8,025.4,000.0,033.9,027.7,018.7,0000.0,0014.41,0004.95,0003.74
2024-05-04 23:51:00,SystemResetWarning,0826.2,5.00,000.00,025.8,025.4,000.0,034.0,027.8,018.4,0000.0,0013.92,0004.96,0003.75
2024-05-04 23:52:00,SystemResetWarning,0826.2,5.00,000.00,025.9,025.5,000.0,034.0,027.8,018.4,0000.0,0012.88,0004.97,0003.77
2024-05-04 23:53:00,SystemResetWarning,0826.2,5.01,000.00,025.9,025.6,000.0,034.0,027.9,018.2,0000.0,0012.74,0004.93,0003.80
2024-05-04 23:54:00,SystemResetWarning,0826.2,4.98,000.00,025.9,024.5,000.0,034.1,027.3,018.2,0000.0,0013.02,0004.93,0003.83
2024-05-04 23:55:00,SystemResetWarning,0826.2,5.00,000.00,025.4,021.9,000.0,034.1,025.8,018.6,0000.0,0014.15,0004.91,0003.85
2024-05-04 23:56:00,SystemResetWarning,0826.2,5.02,000.00,025.0,021.3,000.0,034.1,025.3,019.2,0000.0,0014.01,0004.92,0003.86
2024-05-04 23:57:00,SystemResetWarning,0826.2,4.98,000.00,024.8,021.7,000.0,033.9,025.5,019.5,0000.0,0014.39,0004.96,0003.87
2024-05-04 23:58:00,SystemResetWarning,0826.2,5.00,000.00,024.8,022.2,000.0,033.7,025.9,019.8,0000.0,0014.92,0004.96,0003.86
2024-05-04 23:59:00,SystemResetWarning,0826.1,5.01,000.00,024.8,022.7,000.0,033.6,026.2,019.6,0000.0,0014.99,0004.90,0003.83
